Weather History for Tucumcari, NM

Change the Weather History Date:

Monday, November 28, 2011

  Actual Average Record
Temperature  
Mean Temperature 52 °F -  
Max Temperature 73 °F 54 °F 81 °F (2014)
Min Temperature 30 °F 25 °F -2 °F (1976)
Degree Days  
Heating Degree Days 14    
Growing Degree Days 2 (Base 50)    
Moisture  
Dew Point 14 °F    
Average Humidity 28    
Maximum Humidity 46    
Minimum Humidity 9    
Precipitation  
Precipitation 0.00 in - - ()
Sea Level Pressure  
Sea Level Pressure 30.09 in    
Wind  
Wind Speed 7 mph (NW)    
Max Wind Speed 22 mph    
Max Gust Speed -    
Visibility 10 miles    
Events      
Averages and records for this station are not official NWS values.
T = Trace of Precipitation, MM = Missing Value Source: NWS Daily Summary

Daily Weather History Graph

Daily Weather History Graph

Search for Another Location

Airport:

Trip Planner

Search our weather history database for the weather conditions in past years. The results will help you decide how hot, cold, wet, or windy it might be!

Date:

Astronomy

Nov. 28, 2011 Rise Set
Actual Time 6:41 AM MST 4:42 PM MST
Civil Twilight 6:13 AM MST 5:10 PM MST
Nautical Twilight 5:42 AM MST 5:41 PM MST
Astronomical Twilight 5:12 AM MST 6:12 PM MST
Moon 9:53 AM MST (11/28) 8:30 PM MST (11/28)
Length of Visible Light 10h 56m
Length of Day
10h 01m
Waxing Crescent, 16% of the Moon is Illuminated
Nov 28
Waxing Crescent
Dec 2
First Quarter
Dec 10
Full
Dec 17
Last Quarter
Dec 24
New

Hourly Weather History & Observations

Time (MST) Temp. Windchill Dew Point Humidity Pressure Visibility Wind Dir Wind Speed Gust Speed Precip Events Conditions
12:53 AM 33.1 °F 26.9 °F 12.0 °F 42% 30.16 in 10.0 mi West 6.9 mph - N/A   Clear
1:53 AM 34.0 °F 26.0 °F 12.0 °F 40% 30.14 in 10.0 mi West 10.4 mph - N/A   Clear
2:53 AM 34.0 °F 26.6 °F 12.0 °F 40% 30.13 in 10.0 mi West 9.2 mph - N/A   Clear
3:53 AM 33.1 °F 24.9 °F 12.0 °F 42% 30.12 in 10.0 mi West 10.4 mph - N/A   Clear
5:53 AM 30.9 °F 22.8 °F 12.0 °F 46% 30.12 in 10.0 mi West 9.2 mph - N/A   Clear
6:53 AM 32.0 °F 28.7 °F 12.0 °F 44% 30.14 in 10.0 mi WSW 3.5 mph - N/A   Clear
7:53 AM 37.9 °F 31.5 °F 12.9 °F 36% 30.14 in 10.0 mi West 9.2 mph - N/A   Clear
8:53 AM 46.0 °F 42.5 °F 12.9 °F 26% 30.12 in 10.0 mi West 6.9 mph - N/A   Clear
9:53 AM 53.6 °F - 12.2 °F 19% 30.15 in 10.0 mi WNW 9.2 mph - N/A   Clear
10:53 AM 60.1 °F - 12.9 °F 16% 30.07 in 10.0 mi West 5.8 mph - N/A   Clear
11:53 AM 66.0 °F - 14.0 °F 13% 30.04 in 10.0 mi West 5.8 mph - N/A   Clear
12:53 PM 69.1 °F - 14.0 °F 12% 30.01 in 10.0 mi Variable 3.5 mph - N/A   Clear
1:53 PM 72.0 °F - 12.9 °F 10% 29.98 in 10.0 mi Calm Calm - N/A   Clear
2:53 PM 73.9 °F - 12.0 °F 9% 29.97 in 10.0 mi North 3.5 mph - N/A   Clear
3:53 PM 68.0 °F - 15.1 °F 13% 29.99 in 10.0 mi Calm Calm - N/A   Clear
4:53 PM 61.0 °F - 17.1 °F 18% 30.01 in 10.0 mi ESE 4.6 mph - N/A   Clear
5:53 PM 55.9 °F - 17.1 °F 22% 30.04 in 10.0 mi East 3.5 mph - N/A   Clear
6:53 PM 46.9 °F - 16.0 °F 29% 30.09 in 10.0 mi Calm Calm - N/A   Clear
7:53 PM 44.1 °F - 16.0 °F 32% 30.12 in 10.0 mi Calm Calm - N/A   Clear
8:53 PM 46.0 °F 42.5 °F 16.0 °F 30% 30.12 in 10.0 mi North 6.9 mph - N/A   Clear
9:53 PM 48.9 °F - 16.0 °F 27% 30.15 in 10.0 mi NNE 15.0 mph - N/A   Clear
10:53 PM 48.9 °F - 19.9 °F 32% 30.17 in 10.0 mi NNE 21.9 mph - N/A   Clear
11:53 PM 46.0 °F 41.0 °F 19.9 °F 35% 30.20 in 10.0 mi NE 10.4 mph - N/A   Clear